Regional Weather Roundup
Issued by NWS

Home | Current Version | Previous Version | Graphics & Text | Print | Product List | Glossary On
Versions: 1 2 3 4 5 6 7 8 9 10 11 12 13 14 15 16 17 18 19 20 21 22 23 24 25 26 27 28 29 30 31 32 33 34 35 36 37 38 39 40 41 42 43 44 45 46 47 48 49 50
000
ASUS44 KMEG 112010
RWRTN
TENNESSEE HOURLY STATE WEATHER ROUNDUP
NATIONAL WEATHER SERVICE MEMPHIS TN
200 PM CST THU FEB 11 2016

TNZ002-004-019-021-049-052-054-088>092-112100-
WEST TENNESSEE

CITY           SKY/WX    TMP DP  RH WIND       PRES   REMARKS
MEMPHIS INTL   SUNNY     53  21  28 NE12      30.16S
NWS MEMPHIS      N/A     49 N/A N/A MISG        N/A
JACKSON        SUNNY     48  22  35 NE9       30.18F
DYERSBURG      SUNNY     43  23  45 NE16      30.23S
UNION CITY     SUNNY     39  25  56 NE10      30.22F WCI  32
PARIS          SUNNY     37  21  52 NE7       30.22S WCI  32
LEXINGTON      SUNNY     45  19  36 N10       30.17F
$$

TNZ008-025-027-028-033-062-065-066-112100-
NORTH MIDDLE TENNESSEE

CITY           SKY/WX    TMP DP  RH WIND       PRES   REMARKS
NASHVILLE      MOSUNNY   43  21  41 NE8       30.22F
CLARKSVILLE    SUNNY     38  24  57 NE9       30.24F WCI  31
SMYRNA         SUNNY     43  23  45 N7        30.22F
COOKEVILLE     SUNNY     39  23  52 VRB3      30.18S
CROSSVILLE     SUNNY     38  21  50 N9        30.14F WCI  31
$$

TNZ061-075-076-078-094-096-097-112100-
SOUTH MIDDLE TENNESSEE

CITY           SKY/WX    TMP DP  RH WIND       PRES   REMARKS
FAYETTEVILLE   SUNNY     46  23  39 N6G14     30.15S
TULLAHOMA      SUNNY     41  21  45 NE7       30.17S
WINCHESTER     SUNNY     45  25  45 NE9       30.16S
MCMINNVILLE    SUNNY     39  23  52 VRB7      30.18S WCI  34
COLUMBIA       SUNNY     43  27  52 NE9       30.18S
SHELBYVILLE    SUNNY     43  27  52 VRB3      30.20R
$$

TNZ017-018-042-046-047-112100-
NORTHEAST TENNESSEE

CITY           SKY/WX    TMP DP  RH WIND       PRES   REMARKS
TRI CITIES     MOSUNNY   35  17  47 W12       30.15F WCI  27
$$

TNZ012-013-036-069-073-074-112100-
CENTRAL EAST TENNESSEE

CITY           SKY/WX    TMP DP  RH WIND       PRES   REMARKS
KNOXVILLE      MOSUNNY   41  19  41 N6        30.17F
OAK RIDGE      PTSUNNY   43  19  38 S3        30.19S
GATLINBURG     CLEAR     39  18  41 NW8       30.17R WCI  34
MORRISTOWN     MOCLDY    36  18  48 NW6       30.16S WCI  31
$$

TNZ083-085-099-112100-
SOUTHEAST TENNESSEE

CITY           SKY/WX    TMP DP  RH WIND       PRES   REMARKS
CHATTANOOGA    SUNNY     46  20  35 N7        30.17F
$$

SKY/WX REPORTED AS FAIR MEANS FEW OR NO CLOUDS BELOW
12 THOUSAND FEET.




USA.gov is the U.S. government's official web portal to all federal, state and local government web resources and services.